Search the data

BODC Cruise Metadata Report for Prince Madog (74PD) cruise PM4DW14

Introduction

This report collates information from the BODC cruise inventory and oceanographic databases. It presents

Cruise Inventory Information

Long name Prince Madog (74PD) cruise PM4DW14
Short name PM4DW14
Objectives and Narrative Liverpool Bay Front Survey.
Ship Prince Madog
Departure Port Menai Bridge, United Kingdom
Departure Date 1978-09-04
Arrival Port Menai Bridge, United Kingdom
Arrival Date 1978-09-08
Principal Scientist(s) Steven P R Czitrom Baus (University of Wales, Bangor School of Ocean Sciences)
Responsible Organisation University of Wales, Bangor School of Ocean Sciences
Associated Project(s)
IHB Sea Areas Visited Irish Sea and St. George's Channel
Marsden Squares Visited 181;133/181;134
Work Area Description
Work Area Bounding Polygon 53N,5W; 54N,5W; 54N,3W; 53N,3W; 53N,5W
Southern Limit 53N
Northern Limit 54N
Western Limit 5W
Eastern Limit 3W

Cruise Inventory Datasets

Physical oceanography  
CTD stations Quantity: number of stations = 51
Description:  

Cruise Inventory Mooring/Buoy Operations

No information on datasets is currently available

Summary of BODC Data Holdings for the Cruise

National Oceanographic Database

Summary

# Series Instrument Description Parameters
51 CTD/STD cast Salinity of the water column
Temperature of the water column
Vertical spatial coordinates

Note: Parameter terms are taken from the BODC Parameter Discovery Vocabulary XML (SKOS)

Full List

BODC Reference Instrument Description Date/Time Location  
66084 CTD/STD cast 1978-09-04 18:40Z 53° 49' N, 3° 33' W Click for more
66096 CTD/STD cast 1978-09-04 20:30Z 53° 41' N, 3° 19' W Click for more
66103 CTD/STD cast 1978-09-04 21:52Z 53° 41' N, 3° 26' W Click for more
66115 CTD/STD cast 1978-09-04 22:38Z 53° 40' N, 3° 33' W Click for more
66127 CTD/STD cast 1978-09-05 00:18Z 53° 41' N, 3° 39' W Click for more
66139 CTD/STD cast 1978-09-05 01:00Z 53° 40' N, 3° 46' W Click for more
66140 CTD/STD cast 1978-09-05 02:15Z 53° 41' N, 3° 54' W Click for more
66152 CTD/STD cast 1978-09-05 02:50Z 53° 40' N, 4° 0' W Click for more
66164 CTD/STD cast 1978-09-05 03:55Z 53° 41' N, 4° 7' W Click for more
66176 CTD/STD cast 1978-09-05 04:27Z 53° 41' N, 4° 14' W Click for more
66188 CTD/STD cast 1978-09-05 05:28Z 53° 41' N, 4° 21' W Click for more
66207 CTD/STD cast 1978-09-05 15:38Z 53° 33' N, 3° 27' W Click for more
66219 CTD/STD cast 1978-09-05 16:14Z 53° 33' N, 3° 33' W Click for more
66220 CTD/STD cast 1978-09-05 16:54Z 53° 33' N, 3° 40' W Click for more
66232 CTD/STD cast 1978-09-05 17:26Z 53° 33' N, 3° 46' W Click for more
66244 CTD/STD cast 1978-09-05 18:04Z 53° 33' N, 3° 54' W Click for more
66256 CTD/STD cast 1978-09-05 18:40Z 53° 33' N, 4° 0' W Click for more
66268 CTD/STD cast 1978-09-05 19:18Z 53° 33' N, 4° 7' W Click for more
66281 CTD/STD cast 1978-09-05 19:55Z 53° 33' N, 4° 12' W Click for more
66293 CTD/STD cast 1978-09-05 20:52Z 53° 33' N, 4° 20' W Click for more
66300 CTD/STD cast 1978-09-05 21:50Z 53° 33' N, 4° 25' W Click for more
66312 CTD/STD cast 1978-09-05 23:05Z 53° 41' N, 4° 25' W Click for more
66324 CTD/STD cast 1978-09-05 23:47Z 53° 41' N, 4° 20' W Click for more
66336 CTD/STD cast 1978-09-06 00:25Z 53° 41' N, 4° 13' W Click for more
66348 CTD/STD cast 1978-09-06 01:12Z 53° 41' N, 4° 6' W Click for more
66361 CTD/STD cast 1978-09-06 01:55Z 53° 40' N, 4° 0' W Click for more
66373 CTD/STD cast 1978-09-06 02:43Z 53° 41' N, 3° 54' W Click for more
66385 CTD/STD cast 1978-09-06 03:35Z 53° 40' N, 3° 46' W Click for more
66397 CTD/STD cast 1978-09-06 04:18Z 53° 41' N, 3° 40' W Click for more
66404 CTD/STD cast 1978-09-06 05:03Z 53° 40' N, 3° 33' W Click for more
66416 CTD/STD cast 1978-09-06 05:49Z 53° 41' N, 3° 26' W Click for more
66428 CTD/STD cast 1978-09-06 06:26Z 53° 40' N, 3° 20' W Click for more
66441 CTD/STD cast 1978-09-06 07:10Z 53° 45' N, 3° 19' W Click for more
66453 CTD/STD cast 1978-09-06 07:43Z 53° 49' N, 3° 19' W Click for more
66465 CTD/STD cast 1978-09-06 09:15Z 53° 49' N, 3° 34' W Click for more
66477 CTD/STD cast 1978-09-06 09:58Z 53° 49' N, 3° 39' W Click for more
66489 CTD/STD cast 1978-09-06 10:40Z 53° 49' N, 3° 46' W Click for more
66490 CTD/STD cast 1978-09-06 11:34Z 53° 49' N, 3° 52' W Click for more
66508 CTD/STD cast 1978-09-06 12:20Z 53° 49' N, 4° 0' W Click for more
66521 CTD/STD cast 1978-09-06 13:22Z 53° 49' N, 4° 7' W Click for more
66533 CTD/STD cast 1978-09-06 14:02Z 53° 48' N, 4° 13' W Click for more
66545 CTD/STD cast 1978-09-06 14:40Z 53° 49' N, 4° 19' W Click for more
66557 CTD/STD cast 1978-09-06 15:10Z 53° 54' N, 4° 31' W Click for more
66569 CTD/STD cast 1978-09-06 16:12Z 53° 52' N, 4° 27' W Click for more
66570 CTD/STD cast 1978-09-06 17:00Z 53° 57' N, 4° 28' W Click for more
66582 CTD/STD cast 1978-09-07 09:55Z 53° 56' N, 4° 20' W Click for more
66594 CTD/STD cast 1978-09-07 10:25Z 53° 57' N, 4° 13' W Click for more
66601 CTD/STD cast 1978-09-07 11:03Z 53° 57' N, 4° 6' W Click for more
66613 CTD/STD cast 1978-09-07 11:33Z 53° 57' N, 4° 0' W Click for more
66625 CTD/STD cast 1978-09-07 12:15Z 53° 57' N, 3° 54' W Click for more
66637 CTD/STD cast 1978-09-07 12:50Z 53° 57' N, 3° 47' W Click for more

Project Database

No data currently held for this cruise in the BODC Project Database

References

Track Charts

Track Chart

Reports

No reports currently available